Location: La Pisière
(47.7711°N, 1.3774°W)
Time: 12:55:23
(UTC+00:00)

Daily predictions for brighter satellites

Satellite Brightness Start Highest point End
(mag) Time Altitude Azimuth Time Altitude Azimuth Time Altitude Azimuth
Cosmos 1703 3.9 20:40:51 10° SSE 20:44:24 36° E 20:47:58 10° NNE
RESURS DK-1 2.4 20:50:29 10° NNW 20:54:38 82° WSW 20:58:45 10° SSE
Cosmos 1867 4.5 20:54:43 10° NNW 20:59:55 41° NE 21:05:04 10° ESE
Cosmos 2084 Rocket 3.6 20:59:12 10° NW 21:03:03 58° NE 21:06:56 11° SE
X-37B 1.2 21:01:23 10° W 21:03:59 34° SSW 21:06:14 12° SE
SL-8 R/B 4.1 21:01:14 10° WNW 21:05:54 51° SSW 21:10:19 11° SE
Helios 1A Rocket 3.4 21:03:01 10° SE 21:06:53 47° ENE 21:10:51 10° N
Cosmos 1271 Rocket 4.2 21:05:27 10° NNW 21:09:07 36° W 21:12:42 10° SSW
Cosmos 1741 Rocket 4.2 21:04:15 10° NNW 21:09:34 75° WSW 21:14:53 10° SSE
IRAS Rocket 4.2 21:05:26 10° NNE 21:11:04 80° ESE 21:16:36 10° SSW
Cosmos 2154 Rocket 4.1 21:05:00 10° N 21:11:11 64° ENE 21:17:20 10° SSE
Cosmos 1455 3.7 21:10:16 10° NNW 21:13:45 34° W 21:17:13 10° SSW
Ariane Rocket 3.7 21:10:49 10° S 21:15:47 54° W 21:20:48 10° NNW
Cosmos 1328 4.5 21:13:36 11° SSE 21:17:10 38° E 21:20:53 10° NNE
Cosmos 2082 Rocket 2.9 21:13:01 10° S 21:18:07 35° ESE 21:23:14 10° NE
Cosmos 2360 4.3 21:12:48 10° NNW 21:18:35 88° WSW 21:23:52 12° SSE
SPOT 3 Rocket 3.7 21:15:47 10° S 21:20:58 75° WSW 21:26:14 10° NNW
CZ-2C R/B 4.2 21:17:07 10° NNE 21:21:25 40° E 21:25:23 11° SSE
Cosmos 2228 3.0 21:18:58 10° N 21:23:14 89° W 21:27:18 11° S
Cosmos 1892 Rocket 4.4 21:21:09 13° SSE 21:24:28 33° E 21:28:23 10° NNE
Cosmos 967 Rocket 4.5 21:20:28 10° SSW 21:26:55 76° ESE 21:33:24 10° NE
USA 234 4.4 21:24:53 10° E 21:31:00 43° N 21:37:06 10° WNW
Resurs 01 Rocket 3.6 21:27:30 10° SSW 21:31:09 25° W 21:34:50 10° NW
Cosmos 2058 Rocket 4.0 21:27:12 10° N 21:31:16 34° ENE 21:34:19 16° SE
ATLAS 2AS CENTAUR R/B 4.4 21:27:36 10° WNW 21:32:55 24° WSW 21:38:01 10° SSW
Meteor 1-21 Rocket 4.2 21:31:40 10° S 21:37:16 86° E 21:43:01 10° NNE
CZ-4B R/B 3.7 21:37:29 10° NNW 21:39:43 20° WNW 21:41:57 10° WSW
Cosmos 1331 Rocket 4.2 21:35:34 10° SSW 21:40:52 78° WNW 21:46:12 10° NNE
SPOT 5 2.8 21:37:57 13° S 21:41:49 70° WSW 21:46:08 10° NNW
Cosmos 2184 Rocket 4.5 21:36:05 10° NNW 21:42:09 59° W 21:48:14 10° S
Terra 1.8 21:39:42 16° SSE 21:43:35 83° ENE 21:48:22 10° NNW
SJ 16-02 3.7 21:43:24 10° NNE 21:45:50 14° NE 21:48:17 10° E
Spot 2 Rocket 3.8 21:41:30 12° S 21:46:10 67° WSW 21:51:17 10° NNW
Cosmos 1892 3.5 21:44:17 20° SE 21:46:12 32° E 21:49:36 10° NNE
FALCON 9 DEB 3.6 21:44:13 10° WNW 21:47:26 55° NNE 21:50:08 14° E
ASTEX 1 4.0 21:50:56 10° NNE 21:55:42 43° E 21:58:45 20° SSE
Cosmos 1606 Rocket 3.9 21:52:26 10° NNW 21:56:44 62° W 22:00:09 16° S
USA 276 2.4 21:54:19 10° WNW 21:57:20 61° N 21:59:52 14° E
Cosmos 1697 Rocket 3.5 21:55:50 10° NW 22:01:05 42° WSW 22:05:32 14° S
Cosmos 1980 Rocket 2.2 21:55:47 10° NNW 22:01:30 79° WSW 22:05:29 20° SSE
ARIANE 5 R/B 2.6 21:58:45 20° SSE 22:01:48 88° W 22:06:15 10° NNW
GP-B 3.5 21:58:15 10° NNE 22:02:34 47° E 22:05:01 23° SSE
SL-16 R/B 3.3 21:57:31 10° NNW 22:02:44 36° NE 22:07:09 14° ESE
ERS-1 Rocket 3.6 22:02:19 14° S 22:06:32 50° W 22:11:27 10° NNW
Cosmos 2369 4.0 22:01:49 10° NNW 22:07:31 65° WSW 22:11:30 20° S
ATLAS 5 CENTAUR R/B 1.7 22:08:26 25° S 22:10:04 39° ESE 22:13:54 10° NE
Cosmos 2341 Rocket 4.0 22:04:45 10° N 22:11:07 83° E 22:15:35 20° S
Cosmos 1302 Rocket 4.0 22:06:56 10° SSW 22:12:08 83° WNW 22:17:22 10° NNE
COSMOS 2406 3.6 22:09:31 10° SW 22:15:16 68° WNW 22:21:01 10° NNE
In-Cosmos 22 Rocket 4.3 22:14:44 21° S 22:18:21 60° E 22:23:42 10° NNE
Cosmos 1726 Rocket 4.3 22:14:50 10° NNW 22:18:59 47° W 22:22:00 17° SSW
Cosmos 1408 2.5 22:19:29 24° SSW 22:21:24 76° W 22:24:52 10° N
Okean 1-7 Rocket 3.9 22:19:49 27° SSE 22:22:00 52° E 22:26:23 10° NNE
Cosmos 968 Rocket 4.0 22:18:10 10° NNW 22:23:14 54° WSW 22:26:32 21° S
Cosmos 1869 3.5 22:21:18 10° N 22:25:09 57° ENE 22:26:46 32° SE
Cosmos 1833 Rocket 4.2 22:20:54 10° WSW 22:26:04 37° NW 22:31:17 10° NNE
Cosmos 1825 2.2 22:28:50 34° SSE 22:30:13 59° E 22:33:55 10° NNE
Meteor 1-27 4.2 22:26:11 10° N 22:31:47 81° ENE 22:35:01 26° SSE
Cosmos 1812 Rocket 4.1 22:32:56 10° N 22:37:15 46° ENE 22:39:08 29° SE
Cosmos 2322 Rocket 3.0 22:32:09 10° NNW 22:37:38 45° NE 22:41:25 19° ESE
Spot 4 4.4 22:35:11 25° SE 22:37:38 46° ENE 22:42:14 10° N
USA 267 3.4 22:32:19 10° ENE 22:38:38 49° SE 22:44:56 10° SSW
Cosmos 2181 Rocket 3.9 22:34:39 21° S 22:38:58 85° E 22:45:16 10° N
BREEZE-M DEB (TANK) 3.5 22:38:35 10° WNW 22:41:26 77° N 22:51:13 10° E
Cosmos-2242 3.8 22:37:31 10° N 22:41:32 39° ENE 22:43:11 28° ESE
Cosmos 1932 4.4 22:35:39 10° SW 22:41:52 89° NW 22:48:16 10° NE
Cosmos 1821 Rocket 4.4 22:36:50 10° N 22:42:56 52° ENE 22:46:22 25° SE
Cosmos 1867 4.3 22:38:25 10° NW 22:43:33 42° WSW 22:46:12 25° S
Cosmos 2278 4.0 22:44:12 10° NW 22:49:48 57° WSW 22:52:47 27° S
Cosmos 1602 Rocket 3.7 22:48:54 36° SSE 22:50:27 58° E 22:54:42 10° NNE
SAR-Lupe-4 3.9 22:50:08 10° N 22:53:41 60° WNW 22:55:19 29° SW
Cosmos 2333 Rocket 3.8 22:50:28 10° NNW 22:55:28 29° NE 23:00:27 10° ESE
Cosmos 2082 Rocket 3.3 22:56:40 10° SW 23:02:06 44° NW 23:07:33 10° NNE
ALOS 2 3.2 23:00:42 30° SE 23:02:29 48° ENE 23:06:43 10° N
Gbstr 26 Del rocket 3.8 23:05:10 33° SE 23:05:10 33° SE 23:09:12 10° ENE
Nadezhda 3 Rocket 4.2 23:02:13 29° SSE 23:05:13 56° E 23:11:14 10° NNE
Cosmos 1340 Rocket 4.2 23:05:53 23° ESE 23:06:27 23° E 23:09:38 10° NE
Cosmos 1606 3.0 23:06:31 10° N 23:10:20 56° ENE 23:11:18 42° SE
Cosmos 2360 Rocket 2.7 23:07:17 10° NNW 23:12:52 54° ENE 23:16:15 23° SE
Cosmos 1626 Rocket 4.0 23:10:58 27° SW 23:13:08 55° WNW 23:17:26 10° N
Cosmos 1633 2.4 23:12:29 54° SSW 23:13:11 82° W 23:16:41 10° N
USA 234 3.4 23:07:03 10° ESE 23:13:33 75° NNE 23:20:06 10° NW
BREEZE-M DEB (TANK) 3.8 23:01:56 10° WSW 23:14:08 83° SSE 23:17:43 10° ENE
Terra 4.2 23:19:49 10° WSW 23:21:58 13° W 23:24:06 10° WNW
SJ 16-02 1.3 23:20:35 10° NNW 23:25:02 84° WSW 23:26:24 44° SSE
H-2A R/B 3.5 23:21:34 10° NNE 23:25:46 66° ESE 23:26:52 46° SSE
Cosmos 1825 Rocket 3.7 23:24:44 43° SSE 23:25:53 59° E 23:30:10 10° NNE
Cosmos 2058 3.1 23:28:04 45° SSE 23:29:03 59° E 23:33:11 10° NNE
Cosmos 2237 4.2 23:26:24 10° NNW 23:32:09 79° WSW 23:34:40 35° SSE
USA 276 3.7 23:30:09 10° W 23:31:40 24° W 23:31:40 24° W
Meteor 2-20 4.5 23:30:58 28° SSW 23:34:21 76° WNW 23:40:27 10° N
Cosmos 2221 3.4 23:34:37 10° N 23:38:45 40° ENE 23:40:15 30° ESE
Meteor 2-2 Rocket 4.4 23:35:30 10° N 23:41:33 82° E 23:44:23 34° SSE
COSMOS 2428 4.2 23:37:00 10° NNW 23:42:08 32° NE 23:47:14 10° ESE
Cosmos 1980 Rocket 4.4 23:42:07 10° WNW 23:44:32 13° W 23:46:56 10° WSW
ISS -1.4 23:47:44 14° E 23:47:44 14° E 23:48:23 10° E
SL-16 R/B 2.8 23:41:35 10° NW 23:46:57 44° WSW 23:49:00 32° SSW
ADEOS Rocket 3.6 23:42:56 30° S 23:47:02 76° WSW 23:54:50 10° NNW
ERS-2 2.4 23:43:44 10° NNE 23:47:14 49° ESE 23:47:29 48° ESE
COSMOS 2487 4.1 23:49:36 19° E 23:49:36 19° E 23:51:18 10° NE
Cosmos 2219 Rocket 3.0 23:43:47 10° NNW 23:49:16 47° NE 23:53:12 18° ESE
SL-4 R/B 1.4 23:49:35 72° SSE 23:49:40 73° SSE 23:53:21 10° ENE
Cosmos 1934 Rocket 3.9 23:47:10 10° N 23:53:18 87° E 23:56:10 34° S
SL-27 R/B 3.7 23:53:43 26° E 23:53:43 26° E 23:56:09 10° NE
ATLAS 5 CENTAUR R/B 3.3 23:51:16 10° W 23:54:40 29° NW 23:58:31 10° NNE
